Regional Weather Roundup
Issued by NWS

Home | Current Version | Previous Version | Graphics & Text | Print | Product List | Glossary On
Versions: 1 2 3 4 5 6 7 8 9 10 11 12 13 14 15 16 17 18 19 20 21 22 23 24 25 26 27 28 29 30 31 32 33 34 35 36 37 38 39 40 41 42 43 44 45 46 47 48 49 50
000
ASUS43 KOAX 200710
RWRNE

WEATHER ROUNDUP FOR NEBRASKA
NATIONAL WEATHER SERVICE OMAHA NE
100 AM CST TUE FEB 20 2018

NOTES: SATELLITE DATA IS BEING USED TO AUGMENT CLOUD COVER ABOVE
       12000 FEET.
       "FAIR" INDICATES FEW OR NO CLOUDS BELOW 12,000 FEET WITH NO
       SIGNIFICANT WEATHER AND/OR OBSTRUCTIONS TO VISIBILITY.


NEZ001>004-019>022-054>056-200800-
NEBRASKA PANHANDLE

CITY           SKY/WX    TMP DP  RH WIND       PRES   REMARKS
SCOTTSBLUFF    CLOUDY     0  -7  72 NW10      29.91R HAZE    WCI -16
ALLIANCE       LGT SNOW  -3  -6  87 NW10      29.89S FOG     WCI -20
CHADRON        CLOUDY     0  -6  76 N8        29.95F WCI -14
GORDON         CLOUDY     0  -6  76 NW14      29.90R WCI -19
KIMBALL        CLOUDY    -2  -7  79 N14       29.80R WCI -21
SIDNEY         LGT SNOW  -1  -6  79 N13       29.85R WCI -19
$$

NEZ057>060-069>072-079>082-200800-
SOUTHWEST NEBRASKA

CITY           SKY/WX    TMP DP  RH WIND       PRES   REMARKS
NORTH PLATTE   CLOUDY     7   0  73 NW13      29.91F WCI  -9
IMPERIAL       CLOUDY     6   2  83 N18       29.85F WCI -13
LEXINGTON      FLURRIES  12   7  79 N12       29.90S WCI  -2
MCCOOK         LGT SNOW  10   6  84 N16       29.90R FOG     WCI  -7
OGALLALA       CLOUDY     6  -2  70 N13       29.90R WCI -10
$$

NEZ005>010-023>029-035>040-094-200800-
NORTH CENTRAL NEBRASKA

CITY           SKY/WX    TMP DP  RH WIND       PRES   REMARKS
VALENTINE      HVY SNOW   4  -1  80 NW17G23   29.98R VSB 1/4 WCI -16
AINSWORTH      LGT SNOW   5   2  86 NW13      29.94R WCI -12
BROKEN BOW     LGT SNOW   9   5  84 N15       29.89R VSB 1   WCI  -8
O`NEILL        LGT SNOW   8   5  88 N16       29.90R WCI  -9
ORD            LGT SNOW  11   6  81 N15       29.91R WCI  -5
THEDFORD       CLOUDY     5   1  81 NW16      29.92S WCI -14
$$

NEZ041-046>049-061>064-073>077-083>087-200800-
SOUTH CENTRAL NEBRASKA

CITY           SKY/WX    TMP DP  RH WIND       PRES   REMARKS
GRAND ISLAND   LGT SNOW  14  10  84 NW17      29.90R FOG     WCI  -3
AURORA         LGT SNOW  15  12  88 N16       29.89R WCI  -1
HASTINGS       LGT SNOW  13  10  88 NW17      29.88R FOG     WCI  -4
HEBRON         LGT SNOW  20  19  93 N12       29.90R WCI   8
HOLDREGE       CLOUDY    12   8  86 N14G21    29.88S WCI  -4
KEARNEY        FLURRIES  11   7  84 N17       29.90R WCI  -6
YORK           LGT SNOW  18  18 100 NW15      29.88R WCI   3
$$

NEZ011>018-030>034-042>045-200800-
NORTHEAST NEBRASKA

CITY           SKY/WX    TMP DP  RH WIND       PRES   REMARKS
NORFOLK        LGT SNOW  14  11  87 NW12G17   29.89R FOG     WCI   0
ALBION         LGT SNOW  14  10  84 NW14      29.89R WCI  -1
BLAIR          LGT SNOW  22  20  92 NW5       29.84S WCI  16
COLUMBUS       FLURRIES  17  14  88 NW14      29.91R WCI   3
FREMONT        CLOUDY    20  19  95 NW8       29.87F FOG     WCI  11
TEKAMAH        CLOUDY    20  17  88 N13       29.88R WCI   7
WAYNE          FLURRIES  17  16  96 N9        29.87R WCI   5
$$

NEZ050>053-065>068-078-088>093-200800-
SOUTHEAST NEBRASKA

CITY           SKY/WX    TMP DP  RH WIND       PRES   REMARKS
LINCOLN        FLURRIES  21  19  92 N12       29.87S WCI   9
OMAHA EPPLEY   LGT SNOW  23  21  92 NW10      29.85F FOG     WCI  12
BEATRICE       CLOUDY    23  20  89 NW9       29.86R WCI  13
FALLS CITY     MIX PCPN  26  24  92 NE5       29.84S FOG     WCI  20
NEBRASKA CITY  CLOUDY    24  24 100 NW3       29.84F
PLATTSMOUTH    CLOUDY    23  22  95 NW9       29.82F FOG     WCI  13
$$

NEZ044-045-051>053-067-200800-
OMAHA AREA

CITY           SKY/WX    TMP DP  RH WIND       PRES   REMARKS
OMAHA EPPLEY   LGT SNOW  23  21  92 NW10      29.85F FOG     WCI  12
BLAIR          LGT SNOW  22  20  92 NW5       29.84S WCI  16
FREMONT        CLOUDY    20  19  95 NW8       29.87F FOG     WCI  11
MILLARD        CLOUDY    24  21  88 NW7       29.85F WCI  16
OFFUTT AFB     FRZ DRZL  23  21  91 NW7       29.84F WCI  15
PLATTSMOUTH    CLOUDY    23  22  95 NW9       29.82F FOG     WCI  13
WAHOO          CLOUDY    22  19  91 N10       29.87S FOG     WCI  11
$$



USA.gov is the U.S. government's official web portal to all federal, state and local government web resources and services.